Regional Weather Roundup
Issued by NWS State College, PA

Home | Current Version | Previous Version | Text Only | Print | Product List | Glossary On
Versions: 1 2 3 4 5 6 7 8 9 10 11 12 13 14 15 16 17 18 19 20 21 22 23 24 25 26 27 28 29 30 31 32 33 34 35 36 37 38 39 40 41 42 43 44 45 46 47 48 49 50
611
ASUS41 KCTP 272303
RWRCTP

REGIONAL WEATHER ROUNDUP
NATIONAL WEATHER SERVICE STATE COLLEGE PA
700 PM EDT MON MAR 27 2017

Note: "fair" indicates few or no clouds below 12,000 feet with no
significant weather and/or obstructions to visibility.

* = STATION THAT DOES NOT REPORT PRECIPITATION /E.G. RAIN...SNOW...ETC/
    THUNDER OR FOG.

PAZ002>004-007>009-013>016-020>023-029>032-280000-
WESTERN PENNSYLVANIA

CITY           SKY/WX    TMP DP  RH WIND       PRES   REMARKS
ERIE           PTCLDY    54  47  77 VRB3      29.91F
MEADVILLE      CLOUDY    59  44  57 W7        29.90S
FRANKLIN*      MOCLDY    59  45  58 SW6       29.92S
NEW CASTLE     FAIR      63  49  60 W5        29.91S
BEAVER COUNTY    N/A     64  48  55 W3        29.90F
BUTLER*        CLOUDY    64  46  52 SW3       29.92R
PITTSBURGH INT CLOUDY    67  48  50 SW7       29.89F
PITTSBURGH     CLOUDY    67  46  47 S12       29.89F
INDIANA*       CLEAR     64  48  55 W7        29.93S
LATROBE        PTCLDY    66  50  55 SW13      29.91F
WASHINGTON CO* CLOUDY    66  48  52 SW7       29.92S
$$

PAZ004>006-010>012-017>019-024>028-033>037-041-042-045-046-049>053-280000-
CENTRAL PENNSYLVANIA

CITY           SKY/WX    TMP DP  RH WIND       PRES   REMARKS
BRADFORD       CLOUDY    58  46  64 SW3       29.91S
DUBOIS         PTCLDY    59  44  57 SW5       29.91S
CLEARFIELD       N/A    N/A N/A N/A MISG      29.91S
JOHNSTOWN      PTCLDY    62  47  57 W13       29.92F
ALTOONA        CLOUDY    66  50  56 SW8       29.92S
STATE COLLEGE  PTCLDY    66  46  48 CALM      29.91R
WILLIAMSPORT   CLEAR     58  48  69 E3        29.92R
SELINSGROVE    CLEAR     58  51  78 S5        29.93S
FT INDIANTOWN  MOCLDY    56  56  98 N3        29.94F
CAPITAL CITY   CLEAR     58  49  72 E5        29.94S
HARRISBURG     PTCLDY    57  51  80 CALM      29.93S
YORK             N/A     63  56  78 NE5       29.92S
$$

PAZ038>040-043-044-047-048-054-055-060>062-067>071-280000-
EASTERN PENNSYLVANIA

CITY           SKY/WX    TMP DP  RH WIND       PRES   REMARKS
SCRANTON       CLOUDY    56  48  74 CALM      29.94S
MOUNT POCONO   CLOUDY    51  47  86 E6        29.95R
ALLENTOWN      CLOUDY    54  48  80 SW3       29.97S
QUAKERTOWN*    CLOUDY    55  50  82 CALM      29.97F
READING        CLEAR     56  51  84 CALM      29.94F
LANCASTER      CLEAR     57  54  89 E5        29.94F
COATESVILLE    CLEAR     59  54  82 SE5       29.96F
POTTSTOWN      CLEAR     56  50  80 CALM      29.97S
BLUE BELL      CLEAR     55  50  82 CALM      29.96S
DOYLESTOWN     CLEAR     55  51  86 S5        29.96S
WILLOW GROVE   NOT AVBL
NORTH PHILA    CLEAR     59  52  77 CALM      29.98S HAZE
PHILADELPHIA   MOCLDY    58  52  80 E3        29.97S
$$




USA.gov is the U.S. government's official web portal to all federal, state and local government web resources and services.